Home > Weather > Demmin > Past weeks

Flag for Germany Weather for the Past 2 Weeks in Demmin, Mecklenburg-Western Pomerania, Germany

Now
46 °F

Partly cloudy.


Feels Like: 41 °F
Forecast: 37 / 45 °F
Wind: 12 mph from South

Location: Laage

Current Time: Feb 10, 2016 at 12:42:13 AM

Latest Report: Feb 9, 2016 at 11:20 PM


Visibility: N/A

Pressure: 28.80 "Hg

Humidity: 87%

Dew point: 43 °F

Location of DemminLocation

Historic Weather in Demmin — Graph

°F

Demmin Temperature Yesterday

Maximum temperature yesterday: 46 °F (at 11:20 AM)
Minimum temperature yesterday: 41 °F (at 8:20 PM)
Average temperature yesterday: 44 °F

High & Low Weather Summary for the Past Weeks

 TemperatureHumidityPressure
High54 °F (Feb 7, 1:20 PM)100% (Jan 25, 10:03 PM)30.18 "Hg (Jan 25, 10:03 PM)
Low32 °F (Feb 5, 2:20 AM)57% (Feb 2, 4:20 PM)28.82 "Hg (Feb 9, 10:20 PM)
Average43 °F84%29.74 "Hg
* Reported Jan 25 10:03 PM — Feb 9 10:20 PM, Demmin, Weather by CustomWeather, © 2016

Note: Actual official high and low records may vary slightly from our data, if they occured in-between our weather recording intervals... More about our weather records

Advertising

Demmin Weather History for the Previous 24 Hours

 ConditionsComfort  
Time TempWeatherWind HumidityBarometerVisibility
10:20 PM
Tue, Feb 9
45 °FPassing clouds.9 mph93%28.82 "HgN/A
9:46 PM43 °FPassing clouds.10 mph100%28.85 "HgN/A
9:20 PM43 °FPartly cloudy.14 mph93%28.85 "HgN/A
8:20 PM41 °FPassing clouds.14 mph93%28.91 "Hg4 mi
7:20 PM43 °FPassing clouds.13 mph87%29.00 "HgN/A
6:20 PM45 °FLight rain. Partly cloudy.8 mph76%29.06 "HgN/A
5:20 PM45 °FPassing clouds.7 mph76%29.09 "HgN/A
4:20 PM43 °FPartly sunny.3 mph81%29.15 "HgN/A
3:20 PM43 °FPartly sunny.5 mph81%29.18 "HgN/A
2:20 PM45 °FPartly sunny.9 mph71%29.21 "HgN/A
1:20 PM46 °FBroken clouds.14 mph66%29.24 "HgN/A
12:20 PM46 °FPartly sunny.16 mph66%29.27 "HgN/A
11:20 AM46 °FPassing clouds.16 mph62%29.27 "HgN/A
10:20 AM45 °FPartly sunny.17 mph71%29.27 "HgN/A
9:20 AM45 °FLight rain. Broken clouds.15 mph71%29.27 "HgN/A
8:20 AM45 °FBroken clouds.18 mph76%29.24 "HgN/A
7:20 AM43 °FLight rain. Partly cloudy.17 mph87%29.21 "HgN/A
6:20 AM43 °FPassing clouds.20 mph87%29.21 "HgN/A
5:20 AM43 °FPartly cloudy.20 mph81%29.18 "HgN/A
4:20 AM43 °FPassing clouds.20 mph81%29.18 "HgN/A
3:20 AM45 °FPartly cloudy.18 mph81%29.15 "HgN/A
2:20 AM45 °FLight rain. Passing clouds.20 mph81%29.15 "HgN/A
1:20 AM45 °FPassing clouds.16 mph76%29.15 "HgN/A
12:20 AM45 °FPassing clouds.15 mph76%29.15 "HgN/A
Weather by CustomWeather, © 2016

See weather overviewHow to use our weather pages